Location: Unspecified
(54.1780°N, 0.0000°E)
Time: 17:25:20
(UTC+00:00)

Altair - Pass Details

Date: 24 June 2019
Orbit: 1501 x 1683 km, 47.2° (Epoch: 17 July)

Event Time Altitude Azimuth Distance (km) Brightness Sun altitude
Rises 00:12:21 0° 277° (W) 4,805 10.2 -12.4°
Reaches altitude 10° 00:15:33 10° 272° (W) 3,843 9.6 -12.3°
Maximum altitude 00:24:44 46° 204° (SSW) 2,107 7.8 -12.3°
Drops below altitude 10° 00:34:09 10° 135° (SE) 3,935 9.3 -12.1°
Sets 00:37:29 0° 130° (SE) 4,928 9.8 -12.0°
